Tracking 30922 objects as of 2-Jul-2025
HD Live streaming from Space Station
objects crossing your sky now

ASTROCAST-0402

Track ASTROCAST-0402 now!
10-day predictions
ASTROCAST-0402 is classified as:


NORAD ID: 55109
Int'l Code: 2023-001DE
Perigee: 503.8 km
Apogee: 512.8 km
Inclination: 97.6 °
Period: 94.6 minutes
Semi major axis: 6879 km
RCS: Unknown
Launch date: January 3, 2023
Source: (SWTZ)
Launch site: AIR FORCE EASTERN TEST RANGE (AFETR)

Uplink (MHz):
Downlink (MHz):
Beacon (MHz):
Mode:
Call sign:
Status: Unknown

Your satellite tracking list
FENGYUN 1C DEB
Track 1 satellite(s)




NASA's NSSDC Master Catalog

Two Line Element Set (TLE):
1 55109U 23001DE  25182.70650093  .00005506  00000-0  24746-3 0  9996
2 55109  97.5748 267.3306 0006563  47.8107 312.3684 15.21540009 91123
Source of the keplerian elements: AFSPC